Regional Weather Roundup
Issued by NWS

Home | Current Version | Previous Version | Text Only | Print | Product List | Glossary Off
Versions: 1 2 3 4 5 6 7 8 9 10 11 12 13 14 15 16 17 18 19 20 21 22 23 24 25 26 27

000
ASUS45 KTFX 210310
RWRMT
MONTANA REGIONAL WEATHER ROUNDUP
NATIONAL WEATHER SERVICE GREAT FALLS MT
800 PM MST FRI JAN 20 2017

NOTE: "FAIR" INDICATES FEW OR NO CLOUDS BELOW 12000 FEET WITH NO
SIGNIFICANT WEATHER AND/OR OBSTRUCTIONS TO VISIBILITY.

MTZ001>007-043-210400-
WEST OF THE DIVIDE

CITY           SKY/WX    TMP DP  RH WIND       PRES   REMARKS
KALISPELL      CLEAR     18  16  92 SE3       29.31F
MISSOULA       PTCLDY    25  23  92 CALM      29.32S
BUTTE          CLEAR     16   9  74 S5        29.32S
MULLAN PASS    CLOUDY    25  22  88 SE10G17   29.22F WCI  15
ANACONDA         N/A     25  16  68 S5        29.31F
DEER LODGE       N/A     27  18  69 SW5       29.34F
EUREKA           N/A     27  23  86 CALM      29.33F
HAMILTON         N/A     25  21  86 CALM      29.31S
RONAN            N/A     17  14  88 CALM      29.39S VSB 1
$$

MTZ008-052>055-210400-
SOUTHWEST MONTANA

CITY           SKY/WX    TMP DP  RH WIND       PRES   REMARKS
BOZEMAN        CLEAR     12   9  87 SE7       29.36F WCI   1
DILLON         CLOUDY    20  14  77 CALM      29.33R
W YELLOWSTONE  CLOUDY    19  18  93 CALM      29.36F
ENNIS          CLEAR     23  14  68 S12       29.38F WCI  12
TWIN BRIDGES     N/A     17   6  62 E6        29.41S WCI   9
$$

MTZ009-010-012-014-046-048-049-054-210400-
EAST SLOPES AND CENTRAL MONTANA

CITY           SKY/WX    TMP DP  RH WIND       PRES   REMARKS
CUT BANK       CLEAR     29  23  78 SE6       29.32F WCI  23
GREAT FALLS    CLEAR     29  19  66 S9        29.33F WCI  20
MALMSTROM AFB  CLEAR     26  21  79 S7        29.34F WCI  19
HELENA         CLEAR     25  20  81 W5        29.34F
AUGUSTA          N/A     28  21  75 S10       29.31S WCI  19
BOWMANS CRNR     N/A     27  19  73 S8        29.30F WCI  19
CHOTEAU          N/A     32  23  69 S6        29.34S WCI  26
CONRAD           N/A     18  16  92 SE1       29.41F
POWER            N/A     25  19  80 SE6       29.32F WCI  18
RAYNESFORD       N/A     27  19  70 NE6       29.35F WCI  21
ULM              N/A     27  20  72 MISG      29.34F
$$

MTZ011-013-016-021-045-047-050-051-210400-
NORTH CENTRAL MONTANA

CITY           SKY/WX    TMP DP  RH WIND       PRES   REMARKS
HAVRE          CLEAR     26  24  92 CALM      29.36F
LEWISTOWN      CLEAR     26  20  77 VRB3      29.35F
CHINOOK          N/A     27  23  86 CALM      29.37F
DENTON           N/A     31  25  79 SW7       29.33F WCI  24
FORT BENTON      N/A     36  27  69 MISG      29.37F
GEYSER           N/A     28  22  78 W7        29.34F WCI  20
GRASS RANGE      N/A     27  24  88 W3        29.34F
JUDITH GAP       N/A     29  19  65 S8        29.35F WCI  21
ROY              N/A     31  27  84 MISG      29.35F
STANFORD         N/A     28  19  69 SW10      29.34F WCI  18
WINIFRED         N/A     28  24  83 SE6       29.35F WCI  22
$$

MTZ017>020-022>027-061-062-210400-
NORTHEAST MONTANA

CITY           SKY/WX    TMP DP  RH WIND       PRES   REMARKS
GLASGOW        CLOUDY    33  29  85 W5        29.36F
JORDAN           N/A     30  27  88 NW5       29.37F
SIDNEY         PTCLDY    33  28  81 N6        29.33F WCI  28
WOLF POINT     CLOUDY    32  27  81 SW5       29.36S
PLENTYWOOD       N/A     30  27  86 W6        29.31F WCI  24
POPLAR           N/A     30  27  86 W6        29.36S WCI  24
$$

MTZ028>42-056>058-210400-
SOUTHCENTRAL AND SOUTHEAST MONTANA

CITY           SKY/WX    TMP DP  RH WIND       PRES   REMARKS
BAKER          CLOUDY    32  29  88 W10       29.35F WCI  24
BILLINGS       CLEAR     33  27  78 SW16      29.38F WCI  23
LIVINGSTON     CLEAR     33  17  51 SW12      29.35F WCI  24
MILES CITY     CLOUDY    35  31  85 NW3       29.38F
BIG TIMBER     CLEAR     30  19  64 CALM      29.39S
EKALAKA          N/A     32  29  89 W1        29.40
FORSYTH          N/A     34  34 100 W3        29.39F
HARLOWTON        N/A     24  19  80 W7        29.36F WCI  16
LAUREL           N/A     29  19  66 S3        29.42F
$$

REGIONAL REPORTS...DAKOTAS

CITY           SKY/WX    TMP DP  RH WIND       PRES   REMARKS
WILLISTON      PTCLDY    27  24  89 S3        29.32F
MINOT          CLOUDY    29  27  92 SW5       29.34S
DICKINSON      CLOUDY    25  23  92 W8        29.29S WCI  16
BEACH          CLOUDY    32  28  86 W13       29.36F WCI  22
CROSBY           N/A     14  14 100 E3        29.33F
TIOGA            N/A     12  12 100 CALM      29.32F
WATFORD CITY     N/A     25  23  93 SW5       29.32F
BISMARCK       CLOUDY    32  30  92 NW3       29.33F FOG
GRAND FORKS    CLOUDY    36  33  89 SE13      29.44S WCI  27
FARGO          CLOUDY    39  35  86 SE12      29.43F WCI  32
BUFFALO SD       N/A     36  31  82 NW17      29.27S WCI  26
RAPID CITY     CLOUDY    36  31  82 NW14      29.34S WCI  27
$$

REGIONAL REPORTS...WYOMING/IDAHO/WASHINGTON

CITY           SKY/WX    TMP DP  RH WIND       PRES   REMARKS
GILLETTE       CLOUDY    32  32 100 W8        29.39F WCI  25
SHERIDAN       CLOUDY    32  28  85 SW12      29.39F WCI  23
BUFFALO WY     CLOUDY    33  28  81 W6        29.39F WCI  28
CODY           CLOUDY    16  15  96 S5        29.39F
YELLOWSTONE LA   N/A      9   7  92 CALM      29.38F
IDAHO FALLS    CLOUDY    16  14  92 N6        29.35F WCI   7
SALMON         CLOUDY    12  10  92 S3        29.35S
BOISE          CLOUDY    37  28  70 SE10      29.26R WCI  30
SPOKANE        MOCLDY    38  29  70 E8        29.22F
$$

REGIONAL REPORTS...ALBERTA

CITY           SKY/WX    TMP DP  RH WIND       PRES   REMARKS
EDMONTON       CLEAR     23  12  63 S3        29.34R
CALGARY        PTCLDY    27  18  69 N3        29.30F
LETHBRIDGE     CLEAR     28  23  80 S13       29.31F WCI  18
MEDICINE HAT   CLEAR     27  23  86 SW7       29.34S WCI  19
WATERTON GATE    N/A     27  18  69 S7          N/A  WCI  19
MILK RIVER       N/A     27  21  80 E2          N/A
$$

REGIONAL REPORTS...SASKATCHEWAN

CITY           SKY/WX    TMP DP  RH WIND       PRES   REMARKS
SWIFT CURRENT  CLOUDY    32  27  80 W8        29.30S WCI  25
REGINA         CLOUDY    25  23  93 S6        29.30F WCI  18
SASKATOON      CLOUDY    28  27  93 N6        29.34S WCI  22
CYPRESS HILLS    N/A     25  18  74 W3          N/A
VAL MARIE        N/A     28  23  80 SW3         N/A
ROCKGLEN         N/A     34  27  75 W13         N/A  WCI  25
ASSINIBOIA       N/A     19  19 100 S1          N/A
$$




USA.gov is the U.S. government's official web portal to all federal, state and local government web resources and services.